IRNSS-1C

Last updated on May 21, 2019, 3:10 a.m. UTC

1 40269U 14061A   19140.47005109 -.00000169  00000-0  00000+0 0  9990
2 40269   1.9699 210.4879 0017931   7.2203 272.2803  1.00276090 16908
UTC
Height (km)
Latitude
Longitude
Inclination
Orbital Period
UTC large
Height (km)
Speed (km/s)
/
Latitude / Longitude
Inclination (degrees)
Orbital Period (minutes)
Azimuth
Elevation
Range (km)
Doppler Factor
iOS Compass Heading
iOS Angle

Next 30 passes for location: Hong Kong

Rise time Rise Azimuth (degrees) Set time Set Azimuth (degrees) Duration Max altitude (degrees)

No matching passes for this satellites